BAW2159 TLPL-TTCP

Flight info

Callsign BAW2159
Flight time 0h 33m
Altitude 20000
Route KOBAK DCT GOTER DCT PIBNA
Aircraft B772/H-SDE2E3FGHIJ5LORVWXY/LB1D1

Departure

Time 2026-04-25 14:34
Airport Hewanorra International Airport (TLPL)

Arrival

Time 2026-04-25 15:08
Airport A.N.R. Robinson International Airport (TTCP)
Time Latitude Longitude Altitude Speed Heading
2026-04-25 14:26 13.73519 -60.95061 21 ft 0 kts 270°
2026-04-25 14:31 13.73519 -60.95062 21 ft 1 kts 270°
2026-04-25 14:31 13.73504 -60.95139 24 ft 14 kts 236°
2026-04-25 14:32 13.73413 -60.95157 20 ft 14 kts 181°
2026-04-25 14:32 13.73338 -60.95202 24 ft 18 kts 258°
2026-04-25 14:32 13.73339 -60.95413 25 ft 40 kts 269°
2026-04-25 14:32 13.73334 -60.95761 23 ft 55 kts 270°
2026-04-25 14:33 13.73340 -60.96143 21 ft 50 kts 269°
2026-04-25 14:33 13.73339 -60.96437 20 ft 29 kts 268°
2026-04-25 14:33 13.73351 -60.96521 20 ft 9 kts 17°
2026-04-25 14:33 13.73347 -60.96489 24 ft 5 kts 121°
2026-04-25 14:34 13.73336 -60.96330 24 ft 55 kts 89°
2026-04-25 14:34 13.73334 -60.95622 23 ft 141 kts 89°
2026-04-25 14:34 13.73347 -60.94449 460 ft 174 kts 88°
2026-04-25 14:34 13.73376 -60.93138 1340 ft 189 kts 90°
2026-04-25 14:35 13.73417 -60.91692 2015 ft 218 kts 90°
2026-04-25 14:35 13.73473 -60.90013 2510 ft 252 kts 90°
2026-04-25 14:35 13.73465 -60.88112 2961 ft 273 kts 102°
2026-04-25 14:35 13.72590 -60.86447 4225 ft 263 kts 138°
2026-04-25 14:36 13.70987 -60.85619 5544 ft 262 kts 167°
2026-04-25 14:36 13.69179 -60.85294 6427 ft 269 kts 166°
2026-04-25 14:36 13.67368 -60.84818 7498 ft 267 kts 164°
2026-04-25 14:36 13.65544 -60.84358 8507 ft 274 kts 167°
2026-04-25 14:37 13.63666 -60.83914 9469 ft 281 kts 167°
2026-04-25 14:37 13.61758 -60.83459 10493 ft 284 kts 167°
2026-04-25 14:37 13.59771 -60.83029 10906 ft 309 kts 172°
2026-04-25 14:37 13.57527 -60.82910 11335 ft 331 kts 182°
2026-04-25 14:38 13.55198 -60.83081 12171 ft 340 kts 186°
2026-04-25 14:38 13.52827 -60.83353 13154 ft 344 kts 186°
2026-04-25 14:38 13.50420 -60.83649 14101 ft 350 kts 187°
2026-04-25 14:38 13.47992 -60.83943 15013 ft 354 kts 187°
2026-04-25 14:39 13.45526 -60.84233 15868 ft 360 kts 187°
2026-04-25 14:39 13.43020 -60.84518 16755 ft 365 kts 187°
2026-04-25 14:39 13.40478 -60.84802 17610 ft 370 kts 187°
2026-04-25 14:39 13.37931 -60.85081 18440 ft 375 kts 187°
2026-04-25 14:40 13.35324 -60.85365 19161 ft 379 kts 187°
2026-04-25 14:40 13.32680 -60.85651 19880 ft 383 kts 187°
2026-04-25 14:40 13.30011 -60.85940 20580 ft 388 kts 187°
2026-04-25 14:40 13.27310 -60.86232 21264 ft 393 kts 187°
2026-04-25 14:41 13.24577 -60.86527 21938 ft 397 kts 187°
2026-04-25 14:41 13.21806 -60.86827 22596 ft 402 kts 187°
2026-04-25 14:41 13.19007 -60.87129 23010 ft 405 kts 187°
2026-04-25 14:41 13.16196 -60.87433 22998 ft 406 kts 187°
2026-04-25 14:42 13.14332 -60.87634 23002 ft 406 kts 187°
2026-04-25 14:42 13.12436 -60.87838 22998 ft 406 kts 186°
2026-04-25 14:42 13.08697 -60.88152 22999 ft 407 kts 184°
2026-04-25 14:42 13.05867 -60.88338 22999 ft 408 kts 184°
2026-04-25 14:43 13.03032 -60.88514 22998 ft 408 kts 184°
2026-04-25 14:43 13.00190 -60.88691 22999 ft 408 kts 184°
2026-04-25 14:43 12.97349 -60.88873 22998 ft 408 kts 184°
2026-04-25 14:43 12.93599 -60.89120 22999 ft 408 kts 184°
2026-04-25 14:44 12.91686 -60.89248 22997 ft 407 kts 184°
2026-04-25 14:44 12.88859 -60.89440 22996 ft 407 kts 184°
2026-04-25 14:44 12.86033 -60.89632 22996 ft 407 kts 184°
2026-04-25 14:44 12.83202 -60.89826 22997 ft 407 kts 184°
2026-04-25 14:45 12.80417 -60.90017 22994 ft 407 kts 184°
2026-04-25 14:45 12.77594 -60.90210 22991 ft 406 kts 184°
2026-04-25 14:45 12.74770 -60.90403 22994 ft 405 kts 184°
2026-04-25 14:45 12.71978 -60.90594 22984 ft 400 kts 184°
2026-04-25 14:46 12.69204 -60.90784 22988 ft 397 kts 184°
2026-04-25 14:46 12.66445 -60.90972 22994 ft 397 kts 184°
2026-04-25 14:46 12.63683 -60.91161 22994 ft 397 kts 184°
2026-04-25 14:46 12.60930 -60.91349 22994 ft 396 kts 184°
2026-04-25 14:47 12.58210 -60.91535 22994 ft 396 kts 184°
2026-04-25 14:47 12.56357 -60.91662 22995 ft 396 kts 184°
2026-04-25 14:47 12.52722 -60.91910 22995 ft 395 kts 184°
2026-04-25 14:47 12.49973 -60.92098 22994 ft 395 kts 184°
2026-04-25 14:48 12.47230 -60.92285 22991 ft 395 kts 184°
2026-04-25 14:48 12.44486 -60.92472 22698 ft 393 kts 184°
2026-04-25 14:48 12.41830 -60.92653 22061 ft 373 kts 184°
2026-04-25 14:48 12.39249 -60.92829 21623 ft 371 kts 184°
2026-04-25 14:49 12.36680 -60.93004 21171 ft 369 kts 184°
2026-04-25 14:49 12.34133 -60.93177 20734 ft 366 kts 184°
2026-04-25 14:49 12.31597 -60.93350 20286 ft 364 kts 184°
2026-04-25 14:49 12.29069 -60.93523 19861 ft 362 kts 184°
2026-04-25 14:50 12.26589 -60.93692 19425 ft 361 kts 184°
2026-04-25 14:50 12.24082 -60.93863 18981 ft 360 kts 184°
2026-04-25 14:50 12.21585 -60.94033 18549 ft 359 kts 184°
2026-04-25 14:50 12.19089 -60.94203 18070 ft 358 kts 184°
2026-04-25 14:51 12.16606 -60.94372 17580 ft 357 kts 184°
2026-04-25 14:51 12.14139 -60.94540 17138 ft 354 kts 184°
2026-04-25 14:51 12.11688 -60.94707 16695 ft 352 kts 184°
2026-04-25 14:51 12.09253 -60.94872 16254 ft 350 kts 184°
2026-04-25 14:52 12.06827 -60.95037 15806 ft 348 kts 184°
2026-04-25 14:52 12.04421 -60.95201 15381 ft 346 kts 184°
2026-04-25 14:52 12.02054 -60.95362 14947 ft 344 kts 184°
2026-04-25 14:52 12.00441 -60.95471 14658 ft 343 kts 184°
2026-04-25 14:53 11.97293 -60.95685 14072 ft 341 kts 184°
2026-04-25 14:53 11.94926 -60.95846 13604 ft 340 kts 184°
2026-04-25 14:53 11.92563 -60.96007 13137 ft 338 kts 184°
2026-04-25 14:53 11.90217 -60.96167 12689 ft 336 kts 184°
2026-04-25 14:54 11.87926 -60.96323 12257 ft 333 kts 184°
2026-04-25 14:54 11.85623 -60.96479 11835 ft 330 kts 184°
2026-04-25 14:54 11.83340 -60.96635 11416 ft 327 kts 184°
2026-04-25 14:54 11.81078 -60.96788 11009 ft 324 kts 183°
2026-04-25 14:55 11.78829 -60.96941 10588 ft 322 kts 183°
2026-04-25 14:55 11.76614 -60.97091 10344 ft 314 kts 183°
2026-04-25 14:55 11.74467 -60.97237 10190 ft 303 kts 183°
2026-04-25 14:55 11.72396 -60.97378 10053 ft 293 kts 183°
2026-04-25 14:56 11.70382 -60.97515 9788 ft 288 kts 183°
2026-04-25 14:56 11.68391 -60.97650 9460 ft 286 kts 183°
2026-04-25 14:56 11.66418 -60.97784 9148 ft 283 kts 183°
2026-04-25 14:56 11.64458 -60.97916 8833 ft 280 kts 182°
2026-04-25 14:57 11.62524 -60.98048 8534 ft 278 kts 182°
2026-04-25 14:57 11.60621 -60.98177 8234 ft 276 kts 182°
2026-04-25 14:57 11.58707 -60.98306 7931 ft 274 kts 182°
2026-04-25 14:57 11.56812 -60.98435 7635 ft 272 kts 182°
2026-04-25 14:58 11.54930 -60.98562 7335 ft 270 kts 182°
2026-04-25 14:58 11.53054 -60.98689 7043 ft 269 kts 182°
2026-04-25 14:58 11.51193 -60.98816 6744 ft 267 kts 182°
2026-04-25 14:58 11.49340 -60.98941 6465 ft 266 kts 182°
2026-04-25 14:59 11.47491 -60.99066 6154 ft 265 kts 182°
2026-04-25 14:59 11.45677 -60.99189 5859 ft 264 kts 182°
2026-04-25 14:59 11.43845 -60.99313 5570 ft 263 kts 182°
2026-04-25 14:59 11.42023 -60.99436 5284 ft 262 kts 182°
2026-04-25 15:00 11.40206 -60.99559 4994 ft 261 kts 182°
2026-04-25 15:00 11.38394 -60.99682 4714 ft 260 kts 182°
2026-04-25 15:00 11.36590 -60.99804 4427 ft 259 kts 181°
2026-04-25 15:00 11.34790 -60.99926 4123 ft 259 kts 181°
2026-04-25 15:01 11.32999 -61.00047 3847 ft 258 kts 181°
2026-04-25 15:01 11.31209 -61.00168 3569 ft 257 kts 181°
2026-04-25 15:01 11.29429 -61.00288 3289 ft 256 kts 181°
2026-04-25 15:01 11.27657 -61.00408 3003 ft 255 kts 181°
2026-04-25 15:02 11.25891 -61.00537 2731 ft 254 kts 183°
2026-04-25 15:02 11.24138 -61.00770 2438 ft 254 kts 186°
2026-04-25 15:02 11.22418 -61.01029 2335 ft 245 kts 186°
2026-04-25 15:02 11.20748 -61.01275 2230 ft 238 kts 186°
2026-04-25 15:03 11.19154 -61.01507 2101 ft 229 kts 185°
2026-04-25 15:03 11.17653 -61.01419 1999 ft 209 kts 154°
2026-04-25 15:03 11.16630 -61.00494 1972 ft 191 kts 116°
2026-04-25 15:03 11.16330 -60.99259 1979 ft 170 kts 103°
2026-04-25 15:04 11.16086 -60.98087 2023 ft 168 kts 103°
2026-04-25 15:04 11.15954 -60.96910 1990 ft 166 kts 98°
2026-04-25 15:04 11.15870 -60.95771 1998 ft 153 kts 97°
2026-04-25 15:04 11.15795 -60.94707 1995 ft 151 kts 97°
2026-04-25 15:05 11.15718 -60.93641 1804 ft 150 kts 96°
2026-04-25 15:05 11.15644 -60.92598 1609 ft 145 kts 96°
2026-04-25 15:05 11.15571 -60.91587 1423 ft 142 kts 98°
2026-04-25 15:06 11.15433 -60.89676 1066 ft 130 kts 97°
2026-04-25 15:06 11.15365 -60.88753 917 ft 131 kts 96°
2026-04-25 15:06 11.15300 -60.87822 742 ft 129 kts 97°
2026-04-25 15:06 11.15235 -60.86927 580 ft 129 kts 96°
2026-04-25 15:07 11.15167 -60.85980 424 ft 138 kts 95°
2026-04-25 15:07 11.15105 -60.85047 238 ft 128 kts 97°
2026-04-25 15:07 11.15035 -60.84150 89 ft 125 kts 95°
2026-04-25 15:07 11.14976 -60.83302 39 ft 106 kts 94°
2026-04-25 15:08 11.14930 -60.82723 40 ft 51 kts 95°
2026-04-25 15:08 11.14887 -60.82470 39 ft 14 kts 125°
2026-04-25 15:08 11.14909 -60.82449 38 ft 5 kts 311°
2026-04-25 15:08 11.14909 -60.82456 39 ft 0 kts 275°
2026-04-25 15:09 11.14921 -60.82519 36 ft 29 kts 282°
2026-04-25 15:09 11.14940 -60.82860 41 ft 62 kts 271°
2026-04-25 15:09 11.15000 -60.83655 37 ft 43 kts 273°
2026-04-25 15:10 11.15086 -60.83851 38 ft 14 kts 311°
2026-04-25 15:10 11.15115 -60.83912 39 ft 0 kts 274°